KF7SHY-14 Weather Reports


Display with metric or nautical units.
time (UTC)temp
F
wind
direction
speed
MPH
gust
MPH
rain 1hr
in
rain 24hr
in
rain mn
in
humidity
%
barometer
mb
20260505121324 0 299 1.0 3.0 0.00 0.00 0.00 1014.5
20260505120244 0 280 1.0 3.0 0.00 0.00 0.00 1014.4
20260505115243 0 290 2.0 5.0 0.00 0.00 0.00 1014.5
20260505114243 0 296 3.0 6.0 0.00 0.00 0.00 1014.4
20260505113243 0 303 2.0 5.0 0.00 0.00 0.00 1014.4
20260505112244 0 312 2.0 7.0 0.00 0.00 0.00 1014.4
20260505111309 0 311 3.0 6.0 0.00 0.00 0.00 1014.5
20260505110244 0 297 3.0 8.0 0.00 0.00 0.00 1014.5
20260505101310 0 287 5.0 9.0 0.00 0.00 0.00 1014.1
20260505100244 0 283 6.0 11.0 0.00 0.00 0.00 1013.9
20260505095241 0 258 6.0 9.0 0.00 0.00 0.00 1013.9
20260505094244 0 270 5.0 9.0 0.00 0.00 0.00 1013.9
20260505093244 0 273 6.0 10.0 0.00 0.00 0.00 1013.9
20260505092244 0 265 7.0 12.0 0.00 0.00 0.00 1013.8
20260505091310 0 290 7.0 11.0 0.00 0.00 0.00 1013.6
20260505085243 0 277 8.0 13.0 0.00 0.00 0.00 1013.6
20260505084243 0 274 7.0 11.0 0.00 0.00 0.00 1013.6
20260505083244 0 259 7.0 11.0 0.00 0.00 0.00 1013.6
20260505082244 0 244 7.0 10.0 0.00 0.00 0.00 1013.6
20260505081309 0 255 7.0 11.0 0.00 0.00 0.00 1013.5
20260505080244 0 279 7.0 13.0 0.00 0.00 0.00 1013.5
20260505075243 0 269 8.0 13.0 0.00 0.00 0.00 1013.5
20260505074244 0 278 8.0 14.0 0.00 0.00 0.00 1013.4
20260505073246 0 283 8.0 13.0 0.00 0.00 0.00 1013.4
20260505072244 0 280 8.0 12.0 0.00 0.00 0.00 1013.3
20260505071323 0 274 7.0 14.0 0.00 0.00 0.00 1013.3
20260505070244 0 267 8.0 14.0 0.00 0.00 0.00 1013.1
20260505065244 0 291 8.0 14.0 0.00 0.00 0.00 1013.2
20260505063241 0 271 8.0 14.0 0.00 0.00 0.00 1013.0
20260505061307 0 266 8.0 12.0 0.00 0.00 0.00 1012.7
20260505060244 0 273 8.0 12.0 0.00 0.00 0.00 1012.7
20260505055241 0 292 8.0 12.0 0.00 0.00 0.00 1012.7
20260505054244 0 281 7.0 13.0 0.00 0.00 0.00 1012.7
20260505053242 0 271 8.0 11.0 0.00 0.00 0.00 1012.8
20260505052244 0 279 8.0 12.0 0.00 0.00 0.00 1012.7
20260505051309 0 285 9.0 13.0 0.00 0.00 0.00 1012.7
20260505050244 0 277 8.0 12.0 0.00 0.00 0.00 1012.9
20260505041359 0 272 8.0 16.0 0.00 0.00 0.00 1012.6
20260505040339 0 266 10.0 18.0 0.00 0.00 0.00 1012.4
20260505035341 0 291 10.0 18.0 0.00 0.00 0.00 1012.3
20260505034341 0 285 10.0 21.0 0.00 0.00 0.00 1012.1
20260505033343 0 289 12.0 18.0 0.00 0.00 0.00 1012.1
20260505032340 0 274 11.0 20.0 0.00 0.00 0.00 1012.1
20260505031410 0 264 9.0 16.0 0.00 0.00 0.00 1012.0
20260505030344 0 278 9.0 17.0 0.00 0.00 0.00 1011.9
20260505025346 0 279 9.0 18.0 0.00 0.00 0.00 1011.8
20260505024347 0 265 9.0 18.0 0.00 0.00 0.00 1011.8
20260505023347 0 288 9.0 20.0 0.00 0.00 0.00 1011.7
20260505022344 0 291 10.0 18.0 0.00 0.00 0.00 1011.6
20260505021409 0 283 9.0 18.0 0.00 0.00 0.00 1011.5
20260505020345 0 286 10.0 20.0 0.00 0.00 0.00 1011.5
20260505015344 0 301 10.0 18.0 0.00 0.00 0.00 1011.6
20260505014441 0 293 11.0 18.0 0.00 0.00 0.00 1011.5
20260505013344 0 289 12.0 19.0 0.00 0.00 0.00 1011.6
20260505010346 0 283 9.0 18.0 0.00 0.00 0.00 1011.6
20260505005346 0 279 10.0 20.0 0.00 0.00 0.00 1011.6
20260505004345 0 286 10.0 21.0 0.00 0.00 0.00 1011.6
20260505003346 0 280 10.0 16.0 0.00 0.00 0.00 1011.6
20260505002411 0 311 9.0 18.0 0.00 0.00 0.00 1011.7
20260504235345 0 286 13.0 18.0 0.00 0.00 0.00 1011.6
20260504233346 0 294 9.0 18.0 0.00 0.00 0.00 1011.6
20260504232345 0 294 10.0 18.0 0.00 0.00 0.00 1011.6
20260504230347 0 276 9.0 15.0 0.00 0.00 0.00 1011.9
20260504225400 0 281 8.0 14.0 0.00 0.00 0.00 1012.0
20260504224348 0 278 8.0 12.0 0.00 0.00 0.00 1012.1
20260504223344 0 279 8.0 13.0 0.00 0.00 0.00 1011.9
20260504222347 0 275 8.0 13.0 0.00 0.00 0.00 1012.1
20260504221409 0 291 9.0 14.0 0.00 0.00 0.00 1012.2
20260504220347 0 281 8.0 15.0 0.00 0.00 0.00 1012.3
20260504215343 0 278 9.0 16.0 0.00 0.00 0.00 1012.2
20260504214346 0 274 11.0 18.0 0.00 0.00 0.00 1012.3
20260504213343 0 274 8.0 15.0 0.00 0.00 0.00 1012.3
20260504212347 0 272 8.0 14.0 0.00 0.00 0.00 1012.4
20260504211410 0 262 8.0 14.0 0.00 0.00 0.00 1012.5
20260504205344 0 247 9.0 16.0 0.00 0.00 0.00 1012.5
20260504204344 0 261 10.0 14.0 0.00 0.00 0.00 1012.6
20260504203345 0 259 8.0 14.0 0.00 0.00 0.00 1012.7
20260504202345 0 265 8.0 17.0 0.00 0.00 0.00 1012.7
20260504201409 0 278 8.0 17.0 0.00 0.00 0.00 1012.7
20260504200344 0 260 9.0 16.0 0.00 0.00 0.00 1012.7
20260504195344 0 255 9.0 15.0 0.00 0.00 0.00 1012.8
20260504194345 0 228 8.0 15.0 0.00 0.00 0.00 1012.8
20260504193344 0 239 8.0 16.0 0.00 0.00 0.00 1012.8
20260504192344 0 252 8.0 15.0 0.00 0.00 0.00 1012.8
20260504191412 0 263 7.0 16.0 0.00 0.00 0.00 1012.9
20260504190344 0 249 8.0 15.0 0.00 0.00 0.00 1012.9
20260504185344 0 264 8.0 17.0 0.00 0.00 0.00 1012.8
20260504184344 0 258 8.0 15.0 0.00 0.00 0.00 1013.0
20260504183344 0 240 7.0 14.0 0.00 0.00 0.00 1012.9
20260504182344 0 252 8.0 14.0 0.00 0.00 0.00 1012.9
20260504181411 0 250 9.0 13.0 0.00 0.00 0.00 1012.9
20260504180344 0 253 8.0 13.0 0.00 0.00 0.00 1012.9
20260504175344 0 251 8.0 13.0 0.00 0.00 0.00 1012.9
20260504174344 0 279 8.0 12.0 0.00 0.00 0.00 1012.9
20260504173344 0 262 7.0 12.0 0.00 0.00 0.00 1012.8
20260504172344 0 251 7.0 10.0 0.00 0.00 0.00 1012.7
20260504171409 0 253 6.0 9.0 0.00 0.00 0.00 1012.8
20260504170344 0 253 4.0 8.0 0.00 0.00 0.00 1012.8
20260504160345 0 148 1.0 2.0 0.00 0.00 0.00 1012.5
20260504150342 0 148 1.0 1.0 0.00 0.00 0.00 1012.4
20260504140342 0 76 1.0 1.0 0.00 0.00 0.00 1012.0
20260504130344 0 156 1.0 2.0 0.00 0.00 0.00 1011.8